WB4FAY-4 Weather Reports


time (UTC)temp
C
wind
direction
speed
KPH
gust
KPH
rain 1hr
cm
rain 24hr
cm
rain mn
cm
humidity
%
barometer
mb
20260904092517 25 0 0.0 0.0 0.00 0.00 0.00 84 1016.4
20260904092018 25 0 0.0 0.0 0.00 0.00 0.00 84 1016.4
20260904091517 26 0 0.0 0.0 0.00 0.00 0.00 84 1016.4
20260904091017 26 0 0.0 0.0 0.00 0.00 0.00 84 1016.4
20260904090518 26 0 0.0 0.0 0.00 0.00 0.00 84 1016.5
20260904090017 26 0 0.0 0.0 0.00 0.00 0.00 84 1016.5
20260904085517 26 0 0.0 0.0 0.00 0.00 0.00 84 1016.5
20260904085017 26 0 0.0 0.0 0.00 0.00 0.00 83 1016.4
20260904084517 26 0 0.0 0.0 0.00 0.00 0.00 83 1016.4
20260904084017 26 0 0.0 0.0 0.00 0.00 0.00 83 1016.4
20260904083517 26 0 0.0 0.0 0.00 0.00 0.00 83 1016.4
20260904083017 26 0 0.0 0.0 0.00 0.00 0.00 83 1016.5
20260904082517 26 0 0.0 0.0 0.00 0.00 0.00 82 1016.5
20260904082017 26 0 0.0 0.0 0.00 0.00 0.00 82 1016.5
20260904081518 26 0 0.0 0.0 0.00 0.00 0.00 82 1016.5
20260904081017 26 0 0.0 0.0 0.00 0.00 0.00 82 1016.5
20260904080517 26 0 0.0 0.0 0.00 0.00 0.00 82 1016.6
20260904080017 26 0 0.0 0.0 0.00 0.00 0.00 81 1016.6
20260904075517 26 0 0.0 0.0 0.00 0.00 0.00 81 1016.5
20260904075017 26 0 0.0 0.0 0.00 0.00 0.00 81 1016.6
20260904074518 26 0 0.0 0.0 0.00 0.00 0.00 80 1016.6
20260904074017 26 0 0.0 0.0 0.00 0.00 0.00 80 1016.6
20260904073517 27 0 0.0 0.0 0.00 0.00 0.00 80 1016.7
20260904073017 27 0 0.0 0.0 0.00 0.00 0.00 80 1016.7
20260904072517 26 0 0.0 0.0 0.00 0.00 0.00 80 1016.6
20260904072017 26 0 0.0 0.0 0.00 0.00 0.00 80 1016.6
20260904071517 26 35 0.0 1.6 0.00 0.00 0.00 80 1016.6
20260904071017 26 0 0.0 0.0 0.00 0.00 0.00 80 1016.5
20260904070517 26 95 0.0 4.8 0.00 0.00 0.00 80 1016.5
20260904070017 26 88 0.0 4.8 0.00 0.00 0.00 80 1016.5
20260904065517 26 126 1.6 3.2 0.00 0.00 0.00 80 1016.5
20260904065017 27 136 0.0 3.2 0.00 0.00 0.00 80 1016.6
20260904064517 26 88 3.2 4.8 0.00 0.00 0.00 80 1016.5
20260904064017 26 97 1.6 8.0 0.00 0.00 0.00 81 1016.5
20260904063516 26 93 1.6 4.8 0.00 0.00 0.00 81 1016.6
20260904063017 26 75 0.0 3.2 0.00 0.00 0.00 81 1016.6
20260904062516 26 96 1.6 6.4 0.00 0.00 0.00 81 1016.7
20260904062017 26 52 0.0 1.6 0.00 0.00 0.00 82 1016.7
20260904061517 26 0 0.0 0.0 0.00 0.00 0.00 82 1016.7
20260904061017 26 0 0.0 0.0 0.00 0.00 0.00 82 1016.6
20260904060517 26 0 0.0 0.0 0.00 0.00 0.00 82 1016.7
20260904060017 26 0 0.0 0.0 0.00 0.00 0.00 82 1016.7
20260904055518 26 0 0.0 0.0 0.00 0.00 0.00 82 1016.7
20260904055017 26 0 0.0 0.0 0.00 0.00 0.00 81 1016.7
20260904054517 27 0 0.0 0.0 0.00 0.00 0.00 81 1016.7
20260904054017 27 0 0.0 0.0 0.00 0.00 0.00 81 1016.6
20260904053517 27 0 0.0 0.0 0.00 0.00 0.00 81 1016.7
20260904053017 26 0 0.0 0.0 0.00 0.00 0.00 81 1016.7
20260904052516 27 0 0.0 0.0 0.00 0.00 0.00 80 1016.8
20260904052017 27 0 0.0 0.0 0.00 0.00 0.00 80 1016.9
20260904051517 27 0 0.0 0.0 0.00 0.00 0.00 80 1016.8
20260904051017 27 0 0.0 0.0 0.00 0.00 0.00 79 1016.7
20260904050517 27 0 0.0 0.0 0.00 0.00 0.00 79 1016.7
20260904050017 27 0 0.0 0.0 0.00 0.00 0.00 78 1016.7
20260904045517 27 0 0.0 0.0 0.00 0.00 0.00 78 1016.7
20260904045017 27 0 0.0 0.0 0.00 0.00 0.00 78 1016.8
20260904044517 27 0 0.0 0.0 0.00 0.00 0.00 77 1016.7
20260904044017 27 0 0.0 0.0 0.00 0.00 0.00 77 1016.7
20260904043517 27 0 0.0 0.0 0.00 0.00 0.00 77 1016.7
20260904043017 27 0 0.0 0.0 0.00 0.00 0.00 76 1016.6
20260904042518 27 0 0.0 0.0 0.00 0.00 0.00 76 1016.7
20260904042017 28 0 0.0 0.0 0.00 0.00 0.00 76 1016.8
20260904041517 27 0 0.0 0.0 0.00 0.00 0.00 75 1016.8
20260904041017 28 0 0.0 0.0 0.00 0.00 0.00 75 1016.9
20260904040517 28 0 0.0 0.0 0.00 0.00 0.00 75 1016.8
20260904040017 28 0 0.0 0.0 0.00 0.00 0.00 74 1016.8
20260904035518 28 0 0.0 0.0 0.00 0.00 0.00 74 1016.9
20260904035017 28 0 0.0 0.0 0.00 0.00 0.00 73 1016.8
20260904034518 28 0 0.0 0.0 0.00 0.00 0.00 73 1016.8
20260904034017 28 0 0.0 0.0 0.00 0.00 0.00 72 1016.8
20260904033517 28 0 0.0 0.0 0.00 0.00 0.00 72 1016.9
20260904033017 28 0 0.0 0.0 0.00 0.00 0.00 72 1016.9
20260904032517 28 0 0.0 0.0 0.00 0.00 0.00 71 1016.9
20260904032018 28 0 0.0 0.0 0.00 0.00 0.00 71 1016.9
20260904031517 28 116 0.0 3.2 0.00 0.00 0.00 72 1016.9
20260904031017 28 0 0.0 0.0 0.00 0.00 0.00 72 1016.8
20260904030518 28 0 0.0 0.0 0.00 0.00 0.00 72 1016.8
20260904030017 28 0 0.0 0.0 0.00 0.00 0.00 72 1016.9
20260904025517 28 0 0.0 0.0 0.00 0.00 0.00 71 1016.9
20260904025017 28 0 0.0 0.0 0.00 0.00 0.00 71 1017.0
20260904024517 28 0 0.0 0.0 0.00 0.00 0.00 70 1017.0
20260904024017 28 0 0.0 0.0 0.00 0.00 0.00 70 1017.0
20260904023517 28 0 0.0 0.0 0.00 0.00 0.00 70 1017.0
20260904023017 28 90 0.0 1.6 0.00 0.00 0.00 70 1017.0
20260904022517 28 82 0.0 3.2 0.00 0.00 0.00 70 1016.9
20260904022017 29 0 0.0 0.0 0.00 0.00 0.00 70 1016.9
20260904021517 29 0 0.0 0.0 0.00 0.00 0.00 69 1016.9
20260904021017 29 212 0.0 1.6 0.00 0.00 0.00 70 1016.8
20260904020517 29 226 0.0 1.6 0.00 0.00 0.00 69 1016.8
20260904020018 29 0 0.0 0.0 0.00 0.00 0.00 69 1016.7
20260904015517 29 0 0.0 0.0 0.00 0.00 0.00 69 1016.7
20260904015017 29 0 0.0 0.0 0.00 0.00 0.00 68 1016.7
20260904014517 29 0 0.0 0.0 0.00 0.00 0.00 68 1016.7
20260904014018 30 0 0.0 0.0 0.00 0.00 0.00 67 1016.6
20260904013517 30 0 0.0 0.0 0.00 0.00 0.00 67 1016.5
20260904013017 30 0 0.0 0.0 0.00 0.00 0.00 66 1016.5
20260904012518 30 0 0.0 0.0 0.00 0.00 0.00 66 1016.4
20260904012017 30 0 0.0 0.0 0.00 0.00 0.00 65 1016.4
20260904011517 30 0 0.0 0.0 0.00 0.00 0.00 64 1016.4
20260904011017 30 0 0.0 0.0 0.00 0.00 0.00 64 1016.4
20260904010517 30 0 0.0 0.0 0.00 0.00 0.00 64 1016.2
20260904010017 30 0 0.0 0.0 0.00 0.00 0.00 63 1016.2
20260904005517 31 0 0.0 0.0 0.00 0.00 0.00 63 1016.1
20260904005017 31 0 0.0 0.0 0.00 0.00 0.00 62 1016.1
20260904004517 31 0 0.0 0.0 0.00 0.00 0.00 61 1016.1
20260904004017 31 0 0.0 0.0 0.00 0.00 0.00 60 1016.1
20260904003517 31 0 0.0 0.0 0.00 0.00 0.00 59 1016.1
20260904003016 31 0 0.0 0.0 0.00 0.00 0.00 59 1016.0
20260904002517 31 0 0.0 0.0 0.00 0.00 0.00 58 1016.0
20260904002017 32 209 0.0 1.6 0.00 0.00 0.00 58 1015.8
20260904001517 31 241 0.0 6.4 0.00 0.00 0.00 58 1015.8
20260904001017 31 0 0.0 0.0 0.00 0.00 0.00 59 1015.8
20260904000517 31 0 0.0 0.0 0.00 0.00 0.00 59 1015.7
20260904000017 31 0 0.0 0.0 0.00 0.00 0.00 58 1015.7
20260903235517 32 0 0.0 0.0 0.00 0.00 0.00 58 1015.7
20260903235017 32 0 0.0 0.0 0.00 0.00 0.00 57 1015.6
20260903234516 32 0 0.0 0.0 0.00 0.00 0.00 56 1015.6
20260903234017 32 0 0.0 0.0 0.00 0.00 0.00 56 1015.5
20260903233517 32 0 0.0 0.0 0.00 0.00 0.00 56 1015.5
20260903233017 32 0 0.0 0.0 0.00 0.00 0.00 55 1015.6
20260903232517 32 0 0.0 0.0 0.00 0.00 0.00 55 1015.6
20260903232018 33 0 0.0 0.0 0.00 0.00 0.00 55 1015.5
20260903231517 33 0 0.0 0.0 0.00 0.00 0.00 54 1015.5
20260903231017 33 120 0.0 3.2 0.00 0.00 0.00 53 1015.6
20260903230517 33 0 0.0 0.0 0.00 0.00 0.00 54 1015.6
20260903230017 33 45 0.0 1.6 0.00 0.00 0.00 53 1015.5
20260903225517 33 90 0.0 4.8 0.00 0.00 0.00 52 1015.4
20260903225017 33 97 0.0 3.2 0.00 0.00 0.00 51 1015.4
20260903224517 33 0 1.6 0.0 0.00 0.00 0.00 50 1015.3
20260903224017 34 102 0.0 4.8 0.00 0.00 0.00 49 1015.3
20260903223517 34 93 0.0 1.6 0.00 0.00 0.00 48 1015.3
20260903223017 35 64 0.0 9.7 0.00 0.00 0.00 47 1015.4
20260903222517 35 82 3.2 8.0 0.00 0.00 0.00 46 1015.4
20260903222018 35 65 0.0 9.7 0.00 0.00 0.00 47 1015.3
20260903221517 35 65 0.0 6.4 0.00 0.00 0.00 45 1015.2
20260903221018 35 11 1.6 3.2 0.00 0.00 0.00 45 1015.1
20260903220517 35 120 0.0 6.4 0.00 0.00 0.00 45 1015.1
20260903220017 35 80 0.0 8.0 0.00 0.00 0.00 45 1015.1
20260903215517 35 66 3.2 6.4 0.00 0.00 0.00 45 1015.0
20260903215017 35 92 0.0 1.6 0.00 0.00 0.00 46 1014.9
20260903214517 35 83 0.0 6.4 0.00 0.00 0.00 44 1014.9
20260903214017 35 71 0.0 11.3 0.00 0.00 0.00 45 1014.9
20260903213517 36 66 0.0 6.4 0.00 0.00 0.00 44 1014.9
20260903213017 36 69 3.2 14.5 0.00 0.00 0.00 42 1015.0
20260903212517 36 185 4.8 3.2 0.00 0.00 0.00 41 1015.0
20260903212017 36 188 0.0 9.7 0.00 0.00 0.00 41 1015.0
20260903211517 36 333 0.0 8.0 0.00 0.00 0.00 41 1015.0
20260903211017 36 172 0.0 11.3 0.00 0.00 0.00 39 1015.1
20260903210517 37 76 3.2 8.0 0.00 0.00 0.00 39 1015.2
20260903210017 37 80 0.0 9.7 0.00 0.00 0.00 39 1015.2
20260903205517 37 49 4.8 6.4 0.00 0.00 0.00 40 1015.2
20260903205017 36 96 1.6 8.0 0.00 0.00 0.00 40 1015.3
20260903204517 36 157 1.6 8.0 0.00 0.00 0.00 41 1015.3
20260903204017 36 35 3.2 4.8 0.00 0.00 0.00 42 1015.4
20260903203517 35 49 3.2 12.9 0.00 0.00 0.00 43 1015.4
20260903203017 35 76 3.2 6.4 0.00 0.00 0.00 43 1015.5
20260903202517 35 45 0.0 9.7 0.00 0.00 0.00 44 1015.6
20260903202017 35 83 4.8 8.0 0.00 0.00 0.00 43 1015.6
20260903201518 36 71 0.0 9.7 0.00 0.00 0.00 42 1015.7
20260903201017 36 85 0.0 9.7 0.00 0.00 0.00 42 1015.8
20260903200517 36 360 0.0 9.7 0.00 0.00 0.00 43 1016.0
20260903200017 36 339 0.0 9.7 0.00 0.00 0.00 42 1016.0
20260903195516 36 102 0.0 12.9 0.00 0.00 0.00 43 1016.1
20260903195017 36 89 6.4 11.3 0.00 0.00 0.00 43 1016.2
20260903194517 36 75 3.2 11.3 0.00 0.00 0.00 41 1016.2
20260903194017 36 92 8.0 16.1 0.00 0.00 0.00 42 1016.2
20260903193517 36 100 4.8 12.9 0.00 0.00 0.00 41 1016.4
20260903193017 36 34 1.6 12.9 0.00 0.00 0.00 40 1016.5
20260903192517 36 88 0.0 11.3 0.00 0.00 0.00 41 1016.5
20260903192017 36 100 3.2 8.0 0.00 0.00 0.00 42 1016.6
20260903191517 36 106 1.6 8.0 0.00 0.00 0.00 41 1016.6
20260903191017 36 86 0.0 9.7 0.00 0.00 0.00 40 1016.7
20260903190517 36 83 6.4 12.9 0.00 0.00 0.00 40 1016.8
20260903190016 36 107 1.6 12.9 0.00 0.00 0.00 40 1016.8
20260903185518 36 44 1.6 14.5 0.00 0.00 0.00 42 1016.9
20260903185017 36 42 1.6 14.5 0.00 0.00 0.00 41 1016.8
20260903184517 36 100 9.7 12.9 0.00 0.00 0.00 42 1016.8
20260903184018 36 35 9.7 11.3 0.00 0.00 0.00 41 1016.9
20260903183517 36 143 3.2 14.5 0.00 0.00 0.00 42 1017.0
20260903183017 36 83 6.4 17.7 0.00 0.00 0.00 42 1016.9
20260903182517 36 75 4.8 14.5 0.00 0.00 0.00 41 1017.0
20260903182018 36 104 4.8 16.1 0.00 0.00 0.00 41 1017.1
20260903181517 36 31 8.0 8.0 0.00 0.00 0.00 41 1017.2
20260903181017 36 52 0.0 20.9 0.00 0.00 0.00 41 1017.2
20260903180518 36 64 8.0 8.0 0.00 0.00 0.00 41 1017.2
20260903180017 36 78 4.8 11.3 0.00 0.00 0.00 41 1017.3
20260903175517 36 137 3.2 11.3 0.00 0.00 0.00 41 1017.3
20260903175022 36 90 3.2 16.1 0.00 0.00 0.00 42 1017.3
20260903174517 36 54 4.8 11.3 0.00 0.00 0.00 43 1017.4
20260903174017 36 58 0.0 11.3 0.00 0.00 0.00 43 1017.4
20260903173517 36 27 11.3 12.9 0.00 0.00 0.00 43 1017.5
20260903173017 36 79 3.2 8.0 0.00 0.00 0.00 43 1017.6
20260903172517 35 79 3.2 16.1 0.00 0.00 0.00 43 1017.6
20260903172017 35 97 8.0 11.3 0.00 0.00 0.00 44 1017.6
20260903171517 35 114 0.0 9.7 0.00 0.00 0.00 43 1017.7
20260903171017 35 95 4.8 12.9 0.00 0.00 0.00 44 1017.8
20260903170517 35 116 4.8 9.7 0.00 0.00 0.00 45 1017.8
20260903170016 35 11 6.4 9.7 0.00 0.00 0.00 44 1017.8
20260903165517 35 52 3.2 9.7 0.00 0.00 0.00 45 1018.0
20260903165017 35 86 0.0 16.1 0.00 0.00 0.00 46 1017.9
20260903164517 35 93 1.6 14.5 0.00 0.00 0.00 45 1018.0
20260903164017 35 96 3.2 12.9 0.00 0.00 0.00 44 1018.1
20260903163518 35 51 0.0 8.0 0.00 0.00 0.00 45 1018.1
20260903163017 35 100 4.8 9.7 0.00 0.00 0.00 46 1018.2
20260903162517 35 352 0.0 6.4 0.00 0.00 0.00 47 1018.3
20260903162017 35 45 3.2 8.0 0.00 0.00 0.00 48 1018.3
20260903161517 34 83 1.6 9.7 0.00 0.00 0.00 48 1018.4
20260903161017 34 56 3.2 9.7 0.00 0.00 0.00 49 1018.4
20260903160517 34 71 0.0 9.7 0.00 0.00 0.00 50 1018.5
20260903160017 34 89 6.4 8.0 0.00 0.00 0.00 50 1018.5
20260903155517 34 55 8.0 8.0 0.00 0.00 0.00 50 1018.6
20260903155017 33 72 6.4 8.0 0.00 0.00 0.00 51 1018.6
20260903154517 33 49 6.4 8.0 0.00 0.00 0.00 51 1018.6
20260903154017 33 54 0.0 6.4 0.00 0.00 0.00 53 1018.7
20260903153517 33 0 0.0 0.0 0.00 0.00 0.00 53 1018.7
20260903153017 33 0 0.0 0.0 0.00 0.00 0.00 54 1018.7
20260903152517 33 83 0.0 3.2 0.00 0.00 0.00 54 1018.6
20260903152017 32 93 1.6 9.7 0.00 0.00 0.00 55 1018.6
20260903151517 32 103 3.2 4.8 0.00 0.00 0.00 54 1018.5
20260903151017 32 85 0.0 4.8 0.00 0.00 0.00 53 1018.5
20260903150517 32 83 1.6 9.7 0.00 0.00 0.00 54 1018.4
20260903150017 32 0 0.0 0.0 0.00 0.00 0.00 55 1018.4
20260903145517 32 0 0.0 0.0 0.00 0.00 0.00 58 1018.4
20260903145017 32 0 0.0 0.0 0.00 0.00 0.00 60 1018.4
20260903144518 31 92 0.0 6.4 0.00 0.00 0.00 61 1018.3
20260903144017 31 134 0.0 4.8 0.00 0.00 0.00 63 1018.3
20260903143517 31 148 3.2 4.8 0.00 0.00 0.00 63 1018.2
20260903143017 30 138 1.6 6.4 0.00 0.00 0.00 64 1018.2
20260903142517 30 144 1.6 4.8 0.00 0.00 0.00 66 1018.2
20260903142017 30 172 0.0 3.2 0.00 0.00 0.00 67 1018.2
20260903141517 30 121 3.2 6.4 0.00 0.00 0.00 67 1018.3
20260903141018 29 123 1.6 4.8 0.00 0.00 0.00 68 1018.3
20260903140517 29 144 1.6 4.8 0.00 0.00 0.00 70 1018.3
20260903140017 29 92 0.0 4.8 0.00 0.00 0.00 70 1018.3
20260903135517 28 75 1.6 4.8 0.00 0.00 0.00 70 1018.3
20260903135016 28 90 3.2 6.4 0.00 0.00 0.00 71 1018.3
20260903134517 28 103 0.0 3.2 0.00 0.00 0.00 73 1018.3
20260903134017 28 104 1.6 4.8 0.00 0.00 0.00 74 1018.4
20260903133517 27 103 3.2 3.2 0.00 0.00 0.00 75 1018.4
20260903133017 27 106 0.0 3.2 0.00 0.00 0.00 76 1018.5
20260903132517 27 104 0.0 4.8 0.00 0.00 0.00 78 1018.5
20260903132017 27 103 1.6 6.4 0.00 0.00 0.00 79 1018.5
20260903131517 26 0 0.0 0.0 0.00 0.00 0.00 81 1018.5
20260903131017 26 0 0.0 0.0 0.00 0.00 0.00 82 1018.5
20260903130517 26 0 0.0 0.0 0.00 0.00 0.00 83 1018.5
20260903130017 26 0 0.0 0.0 0.00 0.00 0.00 84 1018.4
20260903125517 26 0 0.0 0.0 0.00 0.00 0.00 85 1018.4
20260903125017 25 0 0.0 0.0 0.00 0.00 0.00 86 1018.4
20260903124518 25 0 0.0 0.0 0.00 0.00 0.00 87 1018.3
20260903124017 25 0 0.0 0.0 0.00 0.00 0.00 87 1018.3
20260903123517 25 0 0.0 0.0 0.00 0.00 0.00 87 1018.3
20260903123017 25 0 0.0 0.0 0.00 0.00 0.00 87 1018.3
20260903122518 25 0 0.0 0.0 0.00 0.00 0.00 87 1018.3
20260903122017 25 0 0.0 0.0 0.00 0.00 0.00 87 1018.2
20260903121517 25 0 0.0 0.0 0.00 0.00 0.00 87 1018.2
20260903121018 25 0 0.0 0.0 0.00 0.00 0.00 87 1018.2
20260903120517 25 0 0.0 0.0 0.00 0.00 0.00 87 1018.2
20260903120017 25 0 0.0 0.0 0.00 0.00 0.00 87 1018.2
20260903115517 25 0 0.0 0.0 0.00 0.00 0.00 87 1018.2
20260903115018 25 0 0.0 0.0 0.00 0.00 0.00 87 1018.2
20260903114517 25 0 0.0 0.0 0.00 0.00 0.00 86 1018.2
20260903114017 25 0 0.0 0.0 0.00 0.00 0.00 86 1018.1
20260903113517 25 0 0.0 0.0 0.00 0.00 0.00 86 1018.1
20260903113017 25 0 0.0 0.0 0.00 0.00 0.00 86 1018.0
20260903112517 25 0 0.0 0.0 0.00 0.00 0.00 86 1018.0
20260903112017 25 0 0.0 0.0 0.00 0.00 0.00 86 1018.0
20260903111517 25 0 0.0 0.0 0.00 0.00 0.00 86 1017.9
20260903111017 25 0 0.0 0.0 0.00 0.00 0.00 86 1017.8
20260903110517 25 0 0.0 0.0 0.00 0.00 0.00 85 1017.8
20260903110017 25 0 0.0 0.0 0.00 0.00 0.00 85 1017.7
20260903105517 25 0 0.0 0.0 0.00 0.00 0.00 85 1017.7
20260903105017 25 0 0.0 0.0 0.00 0.00 0.00 85 1017.7
20260903104517 25 0 0.0 0.0 0.00 0.00 0.00 85 1017.7
20260903104017 25 0 0.0 0.0 0.00 0.00 0.00 85 1017.6
20260903103517 25 0 0.0 0.0 0.00 0.00 0.00 85 1017.7
20260903103017 25 0 0.0 0.0 0.00 0.00 0.00 85 1017.7
20260903102518 25 0 0.0 0.0 0.00 0.00 0.00 85 1017.7
20260903102017 25 0 0.0 0.0 0.00 0.00 0.00 85 1017.7
20260903101517 25 0 0.0 0.0 0.00 0.00 0.00 85 1017.7
20260903101017 25 0 0.0 0.0 0.00 0.00 0.00 85 1017.7
20260903100517 25 0 0.0 0.0 0.00 0.00 0.00 85 1017.7
20260903100017 25 0 0.0 0.0 0.00 0.00 0.00 85 1017.7
20260903095517 25 0 0.0 0.0 0.00 0.00 0.00 84 1017.7
20260903095017 25 0 0.0 0.0 0.00 0.00 0.00 85 1017.8
20260903094517 25 0 0.0 0.0 0.00 0.00 0.00 85 1017.7
20260903094017 25 0 0.0 0.0 0.00 0.00 0.00 85 1017.7
20260903093517 25 0 0.0 0.0 0.00 0.00 0.00 85 1017.7
20260903093017 25 0 0.0 0.0 0.00 0.00 0.00 85 1017.7